C/2017 E1 ( Borisov )

Japanese version
Home page
Updated on March 5, 2017

---------------------------------------------------------------------

* Profile

Discovery Date March 1, 2017
Magnitude 17.0 mag
Discoverer Gennadii Vladimirovich Borisov (Nauchnij, Crimea)

* Pictures

* Orbital Elements

T 2017 Apr.  9.87051 TT                                 MPCW
q   0.9035830            (2000.0)            P               Q
                   Peri.  151.90161     +0.42605034     +0.89182595
                   Node   142.73794     -0.86997585     +0.44999225
e   1.0            Incl.   14.54713     -0.24824004     -0.04640525
From 53 observations 2017 Mar. 1-4.

* Finding Charts

* Magnitudes Graph

        m1 = 12.5 + 5 log d + 10.0 log r

---------------------------------------------------------------------

The orbital elements are published on M.P.E.C. 2017-E42.
The charts are made with StellaNavigator Ver.10 (AstroArts).
The magnitudes graphs are made with Comet for Windows.

---------------------------------------------------------------------

Copyright(C) Seiichi Yoshida (comet@aerith.net). All rights reserved.